www.pogodaiklimat.ru

Погода и климат >> Архив погоды >> Индонезия >> Танджунгпинанг


ПОГОДА в Танджунгпинанге

  • Прогноз погоды в Танджунгпинанге
  • Монитор погоды в Танджунгпинанге

АРХИВ ПОГОДЫ в Танджунгпинанге

Время (UTC), дата Ветер
(напр.,м/с)
 
Видим.   Явления Облачность Т
(С)
Тd
(С)
f
(%)
Тe
(С)
Тes
(С)
Комфортность P
(гПа)
Po
(гПа)
Тmin
(С)
Tmax
(С)
R
(мм)
R24
(мм)
S
(см)
03 9.09 ЮВ 6 10 км 6/4 500 м
[Cu hum Ci fib]
+30.9 +23.9 66 +42 +46 опасность
перегрева
1013.6 1011.2
06 9.09 ЮВ 7 7000 м 9/4 500 м
[Cu hum Ac trans Ci fib]
+31.7 +23.4 62 +43 +45 опасность
перегрева
1011.5 1009.2
09 9.09 ЮВ 5 6000 м 9/4 500 м
[Cu hum Ac trans Ci fib]
+30.6 +23.4 65 +41 +42 опасность
перегрева
1010.2 1007.8
12 9.09 ЮВ 2 6000 м 9/3 500 м
[Cu hum Ac trans Cs]
+27.8 +24.4 82 +39 +39 очень
душно
1011.2 1008.8 +32.0
15 9.09 штиль 0 4000 м мгла 8/1 500 м
[Cu hum Ac trans Cs]
+27.0 +24.7 87 +38 +38 очень
душно
1012.9 1010.5
18 9.09 ЮВ 2 4000 м мгла 8/1 500 м
[Cu hum Ac trans Ci fib]
+26.4 +24.7 90 +37 +37 очень
душно
1011.9 1009.5
21 9.09 ЮВ 3 4000 м мгла 8/1 500 м
[Cu hum Ac trans Ci fib]
+26.2 +24.5 90 +37 +37 очень
душно
1011.5 1009.1
00 10.09 ЮВ 2 7000 м 8/1 500 м
[Cu hum Ac As Ci fib]
+27.0 +25.0 89 +39 +40 очень
душно
1013.2 1010.8 +25.2
03 10.09 ЮВ 6 9000 м 9/4 500 м
[Cu hum Ac As Ci fib]
+30.4 +24.1 69 +42 +44 опасность
перегрева
1014.1 1011.7
06 10.09 ЮВ 6 9000 м 8/5 500 м
[Cu med, cong Ac trans Ci fib]
+31.8 +23.2 60 +42 +45 опасность
перегрева
1011.9 1009.5
09 10.09 ЮВ 5 9000 м 8/4 500 м
[Cu med, cong Ac trans Ci fib]
+30.0 +23.2 67 +40 +41 очень
душно
1010.5 1008.1
12 10.09 ЮВ 3 8000 м 4/1 500 м
[Cu hum Ac trans Ci fib]
+27.4 +23.2 78 +37 +37 очень
душно
1012.2 1009.8 +32.2
15 10.09 ЮВ 2 7000 м 4/1 500 м
[Cu hum Ac trans Ci fib]
+26.3 +23.8 86 +36 +36 очень
душно
1014.2 1011.8
18 10.09 ЮВ 5 7000 м 4/1 500 м
[Cu hum Ac trans Ci fib]
+26.0 +24.0 89 +36 +36 очень
душно
1013.2 1010.8
21 10.09 ЮВ 3 8000 м 8/5 500 м
[Cu hum Ac trans Ci fib]
+25.9 +24.0 89 +36 +36 очень
душно
1012.5 1010.1
00 11.09 ЮВ 3 7000 м 9/1 500 м
[Cu hum Ac trans Cs]
+25.6 +24.3 93 +36 +36 очень
душно
1013.9 1011.6 +24.9
03 11.09 Ю 5 9000 м 6/4 500 м
[Cu hum Ac trans Ci fib]
+31.0 +23.7 65 +42 +47 опасность
перегрева
1015.2 1012.8
06 11.09 Ю 5 9000 м 6/4 500 м
[Cu hum Ac trans Ci fib]
+32.2 +19.6 47 +38 +44 очень
душно
1012.9 1010.5
09 11.09 Ю 5 9000 м 5/3 500 м
[Cu hum Ac trans Ci fib]
+31.0 +21.6 57 +39 +41 очень
душно
1011.5 1009.1
12 11.09 ЮВ 2 9000 м 6/1 500 м
[Cu hum Ac trans Ci fib]
+28.8 +23.0 71 +39 +39 очень
душно
1012.5 1010.2 +32.2
15 11.09 штиль 0 9000 м 6/1 500 м
[Cu hum Ac trans Ci fib]
+26.8 +24.5 87 +38 +38 очень
душно
1013.9 1011.5
18 11.09 штиль 0 8000 м 6/1 500 м
[Cu hum Ac trans Ci fib]
+25.3 +24.3 94 +35 +35 очень
душно
1013.2 1010.9
21 11.09 штиль 0 7000 м 6/1 500 м
[Cu hum Ac trans Ci fib]
+24.8 +23.8 94 +34 +34 очень
душно
1012.9 1010.5
00 12.09 штиль 0 5000 м 6/1 500 м
[Cu hum Ac trans Ci fib]
+25.4 +24.5 95 +36 +37 очень
душно
1014.5 1012.2 +24.2
03 12.09 ЮВ 4 5000 м дым {туман} 9/5 500 м
[Cu med, cong Ac trans Ci fib]
+30.2 +24.2 70 +42 +46 опасность
перегрева
1015.6 1013.2
06 12.09 Ю 6 5000 м дым {туман} 9/6 500 м
[Cu med, cong As op]
+31.1 +22.0 58 +40 +41 очень
душно
1012.9 1010.5
09 12.09 СВ 3 8000 м {туман} 9/5 500 м
[Cu med, cong As trans Cs]
+30.9 +23.1 63 +41 +43 опасность
перегрева
1010.8 1008.4
12 12.09 ЮВ 2 6000 м 6/1 500 м
[Cu hum Ac trans Ci fib]
+27.8 +24.5 82 +39 +39 очень
душно
1011.9 1009.5
15 12.09 штиль 0 5000 м дым {туман} 5/1 500 м
[Cu hum Ac trans Ci fib]
+26.4 +24.1 87 +37 +37 очень
душно
1013.5 1011.1
18 12.09 штиль 0 5000 м дым {туман} 6/4 500 м
[Cu hum Ac trans Ci fib]
+25.4 +24.0 92 +35 +35 очень
душно
1012.5 1010.1
21 12.09 штиль 0 5000 м дым {туман} 5/3 500 м
[Cu hum Ac trans Ci fib]
+24.8 +23.3 91 +33 +33 очень
душно
1012.5 1010.1
00 13.09 штиль 0 5000 м дым {туман} 6/1 500 м
[Cu hum Ac trans Ci fib]
+24.2 +23.3 95 +32 +34 очень
душно
1013.5 1011.1 +23.6
03 13.09 ЮВ 4 8000 м дым {туман} 9/4 500 м
[Cu hum Ac trans Ci fib]
+30.0 +24.0 70 +41 +46 опасность
перегрева
1014.6 1012.2
06 13.09 Ю 4 10 км 9/4 500 м
[Cu hum Ac trans Ci fib]
+31.0 +23.4 64 +42 +47 опасность
перегрева
1012.2 1009.8
09 13.09 Ю 4 10 км 6/4 500 м
[Cu hum Ac trans Ci fib]
+30.6 +24.1 68 +42 +44 опасность
перегрева
1010.2 1007.8
12 13.09 ЮВ 4 10 км 5/3 500 м
[Cu hum Ac trans Ci fib]
+27.7 +24.0 80 +38 +38 очень
душно
1011.5 1009.1 +32.2
15 13.09 ЮВ 2 10 км 6/1 500 м
[Cu hum Ac trans Ci fib]
+26.6 +23.4 83 +36 +36 очень
душно
1013.5 1011.1
18 13.09 ЮВ 2 8000 м {туман} 10/1 500 м
[Cu hum Ac trans Cs]
+25.9 +23.7 88 +35 +35 очень
душно
1011.9 1009.6
21 13.09 штиль 0 8000 м 10/1 500 м
[Cu hum Ac trans Cs]
+25.4 +23.7 90 +35 +35 очень
душно
1011.2 1008.8
00 14.09 штиль 0 7000 м 10/3 500 м
[Cu hum Ac As Cs]
+25.4 +23.8 91 +35 +35 очень
душно
1013.2 1010.9 +24.2
03 14.09 Ю 4 7000 м 10/5 500 м
[Cu med, cong Ac As Cs]
+29.6 +24.8 75 +42 +45 опасность
перегрева
1013.9 1011.5
06 14.09 Ю 5 8000 м 10/5 500 м
[Cu hum Ac As Cs]
+30.2 +23.1 66 +40 +43 очень
душно
1012.2 1009.8
09 14.09 Ю 5 7000 м 10/5 500 м
[Cu hum Ac As Cs]
+29.4 +24.0 73 +41 +42 опасность
перегрева
1010.3 1008.0
12 14.09 ЮВ 4 8000 м 10/4 500 м
[Cu hum Ac As Cs]
+27.6 +24.2 82 +39 +39 очень
душно
1011.2 1008.8 +30.4
15 14.09 ЮВ 2 8000 м 9/3 500 м
[Cu hum Ac As Ci fib]
+26.8 +24.2 86 +37 +37 очень
душно
1012.9 1010.5
18 14.09 ЮВ 2 8000 м 9/3 500 м
[Cu hum Ac As Ci fib]
+25.6 +24.2 92 +35 +35 очень
душно
1011.5 1009.2
21 14.09 штиль 0 9000 м 9/3 500 м
[Cu hum Ac As Ci fib]
+26.0 +24.3 90 +36 +36 очень
душно
1010.5 1008.1
00 15.09 ЮВ 2 9000 м 10/5 500 м
[Cu hum Ac As Cs]
+26.8 +23.0 80 +36 +36 очень
душно
1011.8 1009.4 +25.4
03 15.09 ЮВ 6 9000 м 10/5 500 м
[Cu hum Ac As Cs]
+29.4 +22.7 67 +39 +40 очень
душно
1012.9 1010.6
06 15.09 Ю 6 10 км 8/4 500 м
[Cu hum Ac trans Ci fib]
+30.7 +21.4 58 +39 +42 очень
душно
1010.5 1008.1
09 15.09 ЮВ 4 10 км 8/3 500 м
[Cu hum Ac trans Ci fib]
+29.1 +21.7 64 +37 +39 очень
душно
1009.0 1006.7
12 15.09 ЮВ 2 9000 м 9/3 500 м
[Cu hum Ac trans Cs]
+27.0 +22.6 77 +36 +36 очень
душно
1010.2 1007.8 +31.6
15 15.09 штиль 0 6000 м 9/3 500 м
[Cu hum Ac trans Cs]
+25.6 +23.3 87 +34 +34 очень
душно
1011.9 1009.6
18 15.09 штиль 0 6000 м 9/1 500 м
[Cu hum Ac trans Cs]
+24.8 +23.9 95 +34 +34 очень
душно
1010.8 1008.4
21 15.09 ЮВ 2 8000 м 8/1 500 м
[Cu hum Ac trans Cs]
+24.8 +23.6 93 +34 +34 очень
душно
1010.2 1007.8

 

Местоположение метеостанции Танджунгпинанг (Индонезия): широта 0.92 долгота 104.53 высота над уровнем моря 18 м.

В архиве по умолчанию представлена погода в Танджунгпинанге за последнюю неделю. Архивные данные за месяц целиком и за предыдущие месяцы, начиная с января 2011 года, Вы можете получить, выбрав интересующий диапазон дат из раскрывающегося списка и нажав кнопку "Ввод!".


*Определитесь, кто Вы:
робот инопланетянин человек

Внимание! Время в таблицах - всемирное. Для получения местного времени необходимо прибавить поправку, которая равна 7 ч.

Смотрите также архив погоды в соседних городах и на ближайших метеорологических станциях:

Погода в Аэропорту Ханга Надима (Индонезия) (52 км)
Погода в Сингапуре (Сингапур) (79 км)
Погода в Аэропорту Сеная (Малайзия) (124 км)
Погода в Аэропорту Дабо (Индонезия) (156 км)
Погода в Аэропорту Япура (Индонезия) (283 км)
Погода в Малакке (Малайзия) (295 км)
Погода в Джамби (Индонезия) (300 км)
Погода в Таремпе (Индонезия) (318 км)
Погода в Пеканбару (Индонезия) (346 км)
Погода в Куантане (Малайзия) (350 км)

Пояснения к столбцам:

Ветер - указаны скорость ветра в м/с - средняя за 10 мин, порывы в срок и между сроками (в фигурных скобках) и направление, откуда дует ветер: С - северный, СВ - северо-восточный, В - восточный, ЮВ - юго-восточный, Ю - южный, ЮЗ - юго-западный, З - западный, СЗ - северо-западный.
Видимость - горизонтальная дальность видимости в метрах или километрах. При видимости от 1 до 10 км при отсутствии осадков обычно наблюдается дымка, при ухудшении видимости до 1 км и менее - туман. В сухую погоду видимость может ухудшаться дымом, пылью или мглою.
Явления - указаны атмосферные явления, наблюдавшиеся в срок или в последний час перед сроком; фигурными скобками обозначены явления, наблюдавшиеся между сроками (за 1-3 часа до срока); квадратными скобками обозначены град или гололедные отложения с указанием их диаметра в мм.
Облачность - указаны через наклонную черту общая и нижняя облачность в баллах и высота нижней границы облаков в метрах; квадратными скобками обозначены формы облаков: Ci - перистые, Cs - перисто-слоистые, Cc - перисто-кучевые, Ac - высококучевые, As - высокослоистые, Sc - слоисто-кучевые, Ns - слоисто-дождевые, Cu - кучевые, Cb - кучево-дождевые. Подробнее классификацию облаков см. в Атласе облаков (PDF).
T - Температура воздуха - температура, измеренная на высоте 2 м над землей.
Td - Температура точки росы - температура, при понижении до которой содержащийся в воздухе водяной пар достигнет насыщения.
f - Относительная влажность воздуха - влажноcть воздуха, измеренная на высоте 2 м над землей.
Te - Эффективная температура - температура, которую ощущает одетый по сезону человек в тени. Характеристика душности погоды. При расчете учитывается влияние влажности воздуха и скорости ветра на теплоощущения человека.
Tes - Эффективная температура на солнце - температура, которую ощущает человек, с поправкой на солнечный нагрев. Характеристика знойности погоды. Зависит от высоты солнца над горизонтом, облачности и скорости ветра. Ночью, в пасмурную погоду, а также при ветре 12 м/с и более поправка равна нулю.
P - Атмосферное давление - приведенное к уровню моря атмосферное давление.
Po - Атмосферное давление - измеренное на уровне метеостанции атмосферное давление.
Tmin - Минимальная температура - минимум температуры воздуха на высоте 2 м над землей.
Tmax - Максимальная температура - максимум температуры воздуха на высоте 2 м над землей.
R - Количество осадков - Количество выпавших осадков за период времени, мм. При наведении курсора мыши на число - период времени, за который выпало указанное количество осадков.
R24 - Количество осадков - Количество выпавших осадков за 24 часа, мм.
S - Снежный покров - Высота снежного покрова, см. При наведении курсора мыши на число - состояние снежного покрова и степень покрытия местности в баллах.